This is the latest recevied weather packets stored in our database for station/object KM4CNW. If no packets are shown the sender has not sent any weather packets the latest 10 day(s).
| Time | Temp. | Humidity | Pressure | Rain* | Wind** | Luminosity | Snow |
|---|---|---|---|---|---|---|---|
| 1778004008 | 26.67° C | 33% | 1010 hPa | 0 mm | - | 926 W/m² | - |
| 1778003703 | 26.67° C | 33% | 1009.9 hPa | 0 mm | - | 920 W/m² | - |
| 1778003400 | 26.67° C | 33% | 1009.9 hPa | 0 mm | - | 910 W/m² | - |
| 1778003097 | 26.11° C | 32% | 1010 hPa | 0 mm | - | 905 W/m² | - |
| 1778002793 | 25.56° C | 33% | 1010.1 hPa | 0 mm | - | 919 W/m² | - |
| 1778002490 | 26.11° C | 32% | 1009.9 hPa | 0 mm | - | 890 W/m² | - |
| 1778002187 | 25.56° C | 33% | 1009.9 hPa | 0 mm | - | 768 W/m² | - |
| 1778001885 | 26.11° C | 32% | 1010 hPa | 0 mm | - | 827 W/m² | - |
| 1778001584 | 25.56° C | 32% | 1009.9 hPa | 0 mm | - | 899 W/m² | - |
| 1778001282 | 25.56° C | 33% | 1010.2 hPa | 0 mm | - | 883 W/m² | - |
| 1778000978 | 25.56° C | 33% | 1010.2 hPa | 0 mm | - | 900 W/m² | - |
| 1778000675 | 25.56° C | 34% | 1010.4 hPa | 0 mm | - | 862 W/m² | - |
| 1778000370 | 25.56° C | 36% | 1010.2 hPa | 0 mm | - | 707 W/m² | - |
| 1778000066 | 25.56° C | 34% | 1010.3 hPa | 0 mm | - | 613 W/m² | - |
| 1777999762 | 25° C | 36% | 1010.5 hPa | 0 mm | - | 646 W/m² | - |
| 1777999459 | 25° C | 36% | 1010.3 hPa | 0 mm | - | 684 W/m² | - |
| 1777999157 | 25° C | 37% | 1010.5 hPa | 0 mm | - | 707 W/m² | - |
| 1777998856 | 25° C | 37% | 1010.8 hPa | 0 mm | - | 723 W/m² | - |
| 1777998554 | 25° C | 37% | 1010.8 hPa | 0 mm | - | 694 W/m² | - |
| 1777998249 | 25° C | 38% | 1010.7 hPa | 0 mm | - | 685 W/m² | - |
| 1777997947 | 25° C | 38% | 1010.7 hPa | 0 mm | - | 739 W/m² | - |
| 1777997643 | 25.56° C | 37% | 1010.6 hPa | 0 mm | - | 736 W/m² | - |
| 1777997341 | 25° C | 39% | 1010.6 hPa | 0 mm | - | 752 W/m² | - |
| 1777997039 | 24.44° C | 40% | 1010.7 hPa | 0 mm | - | 761 W/m² | - |
| 1777996735 | 25° C | 41% | 1010.7 hPa | 0 mm | - | 784 W/m² | - |
* Rain latest hour (hover to see other rain measurements)
** Current wind speed in m/s (hover to see current wind gust speed)